Wetterdaten: Woche 06.01.14 - 12.01.14 (KW2)
Datum Zeit Temp. Aussen +5cm Feuchte Auss Luftdruck Regen Sonnenschein Regendauer UV Solar Windben
06.01.2014 00:00 4,8 C 3,1 C 86 % 1006,9 hPa 0,0 l/m 0,00 h 0,00 h 0,0 UV-I 0 W/m 18,8 km/h (3 Bft)
06.01.2014 01:00 5,0 C 3,6 C 86 % 1006,0 hPa 0,0 l/m 0,00 h 0,00 h 0,0 UV-I 0 W/m 22,5 km/h (4 Bft)
06.01.2014 02:00 5,7 C 4,4 C 87 % 1004,9 hPa 0,0 l/m 0,00 h 0,00 h 0,0 UV-I 0 W/m 25,7 km/h (4 Bft)
06.01.2014 03:00 6,4 C 5,2 C 88 % 1004,6 hPa 0,0 l/m 0,00 h 0,00 h 0,0 UV-I 0 W/m 14,2 km/h (3 Bft)
06.01.2014 04:00 7,4 C 6,3 C 88 % 1004,2 hPa 0,0 l/m 0,00 h 0,00 h 0,0 UV-I 0 W/m 17,2 km/h (3 Bft)
06.01.2014 05:00 8,3 C 6,8 C 88 % 1004,1 hPa 0,0 l/m 0,00 h 0,00 h 0,0 UV-I 0 W/m 17,3 km/h (3 Bft)
06.01.2014 06:00 8,8 C 7,5 C 88 % 1004,3 hPa 0,0 l/m 0,00 h 0,00 h 0,0 UV-I 0 W/m 14,1 km/h (3 Bft)
06.01.2014 07:00 10,1 C 8,2 C 88 % 1004,2 hPa 0,2 l/m 0,00 h 0,47 h 0,0 UV-I 0 W/m 18,5 km/h (3 Bft)
06.01.2014 08:00 10,0 C 7,8 C 91 % 1004,4 hPa 0,2 l/m 0,00 h 0,40 h 0,0 UV-I 0 W/m 15,1 km/h (3 Bft)
06.01.2014 09:00 10,4 C 8,3 C 92 % 1005,3 hPa 0,0 l/m 0,00 h 0,07 h 0,0 UV-I 7 W/m 13,2 km/h (3 Bft)
06.01.2014 10:00 11,4 C 9,3 C 89 % 1005,5 hPa 0,0 l/m 0,00 h 0,00 h 0,0 UV-I 17 W/m 15,3 km/h (3 Bft)
06.01.2014 11:00 11,8 C 10,1 C 87 % 1005,4 hPa 0,0 l/m 0,00 h 0,03 h 0,0 UV-I 26 W/m 15,3 km/h (3 Bft)
06.01.2014 12:00 12,7 C 11,3 C 85 % 1005,2 hPa 0,0 l/m 0,00 h 0,00 h 0,0 UV-I 81 W/m 21,7 km/h (4 Bft)
06.01.2014 13:00 13,9 C 12,2 C 82 % 1004,5 hPa 0,0 l/m 0,17 h 0,00 h 0,0 UV-I 124 W/m 21,5 km/h (4 Bft)
06.01.2014 14:00 14,2 C 12,2 C 81 % 1004,2 hPa 0,0 l/m 0,10 h 0,00 h 0,0 UV-I 68 W/m 13,9 km/h (3 Bft)
06.01.2014 15:00 13,1 C 11,1 C 85 % 1004,1 hPa 0,0 l/m 0,00 h 0,10 h 0,0 UV-I 18 W/m 11,3 km/h (2 Bft)
06.01.2014 16:00 13,4 C 11,6 C 83 % 1004,3 hPa 0,0 l/m 0,00 h 0,03 h 0,0 UV-I 9 W/m 15,4 km/h (3 Bft)
06.01.2014 17:00 13,3 C 10,6 C 84 % 1004,0 hPa 0,0 l/m 0,00 h 0,13 h 0,0 UV-I 0 W/m 14,6 km/h (3 Bft)
06.01.2014 18:00 13,0 C 10,7 C 85 % 1003,7 hPa 0,0 l/m 0,00 h 0,37 h 0,0 UV-I 0 W/m 20,9 km/h (4 Bft)
06.01.2014 19:00 12,7 C 10,6 C 86 % 1003,5 hPa 0,0 l/m 0,00 h 0,13 h 0,0 UV-I 0 W/m 15,9 km/h (3 Bft)
06.01.2014 20:00 12,8 C 11,0 C 84 % 1003,7 hPa 0,0 l/m 0,00 h 0,10 h 0,0 UV-I 0 W/m 16,1 km/h (3 Bft)
06.01.2014 21:00 12,7 C 10,9 C 84 % 1003,7 hPa 0,2 l/m 0,00 h 0,13 h 0,0 UV-I 0 W/m 20,2 km/h (4 Bft)
06.01.2014 22:00 13,0 C 11,1 C 83 % 1004,4 hPa 0,0 l/m 0,00 h 0,20 h 0,0 UV-I 0 W/m 17,2 km/h (3 Bft)
06.01.2014 23:00 11,3 C 8,5 C 88 % 1005,5 hPa 5,8 l/m 0,00 h 0,77 h 0,0 UV-I 0 W/m 17,8 km/h (3 Bft)
07.01.2014 00:00 10,7 C 8,7 C 92 % 1006,3 hPa 0,0 l/m 0,00 h 0,03 h 0,0 UV-I 0 W/m 11,8 km/h (2 Bft)
07.01.2014 01:00 11,0 C 8,3 C 86 % 1006,8 hPa 0,0 l/m 0,00 h 0,00 h 0,0 UV-I 0 W/m 11,6 km/h (2 Bft)
07.01.2014 02:00 10,7 C 8,3 C 86 % 1007,9 hPa 0,0 l/m 0,00 h 0,00 h 0,0 UV-I 0 W/m 12,6 km/h (3 Bft)
07.01.2014 03:00 10,5 C 8,3 C 84 % 1008,6 hPa 0,0 l/m 0,00 h 0,00 h 0,0 UV-I 0 W/m 15,2 km/h (3 Bft)
07.01.2014 04:00 10,3 C 8,3 C 84 % 1009,3 hPa 0,0 l/m 0,00 h 0,00 h 0,0 UV-I 0 W/m 12,5 km/h (3 Bft)
07.01.2014 05:00 10,4 C 8,7 C 84 % 1009,5 hPa 0,0 l/m 0,00 h 0,00 h 0,0 UV-I 0 W/m 14,0 km/h (3 Bft)
07.01.2014 06:00 10,1 C 8,1 C 84 % 1009,9 hPa 0,0 l/m 0,00 h 0,00 h 0,0 UV-I 0 W/m 14,7 km/h (3 Bft)
07.01.2014 07:00 9,6 C 7,6 C 85 % 1010,5 hPa 0,0 l/m 0,00 h 0,00 h 0,0 UV-I 0 W/m 10,9 km/h (2 Bft)
07.01.2014 08:00 9,2 C 7,2 C 85 % 1010,9 hPa 0,0 l/m 0,13 h 0,00 h 0,0 UV-I 10 W/m 11,2 km/h (2 Bft)
07.01.2014 09:00 9,5 C 7,8 C 83 % 1011,3 hPa 0,0 l/m 0,03 h 0,00 h 0,0 UV-I 37 W/m 14,1 km/h (3 Bft)
07.01.2014 10:00 10,2 C 8,7 C 81 % 1011,8 hPa 0,0 l/m 0,63 h 0,00 h 0,0 UV-I 114 W/m 15,8 km/h (3 Bft)
07.01.2014 11:00 11,8 C 9,9 C 76 % 1012,0 hPa 0,0 l/m 0,93 h 0,00 h 0,0 UV-I 192 W/m 19,9 km/h (4 Bft)
07.01.2014 12:00 12,5 C 10,7 C 75 % 1011,4 hPa 0,0 l/m 0,57 h 0,00 h 0,0 UV-I 174 W/m 22,1 km/h (4 Bft)
07.01.2014 13:00 12,9 C 11,3 C 76 % 1011,3 hPa 0,0 l/m 0,60 h 0,00 h 0,0 UV-I 153 W/m 18,1 km/h (3 Bft)
07.01.2014 14:00 13,1 C 11,7 C 75 % 1011,3 hPa 0,0 l/m 0,47 h 0,00 h 0,0 UV-I 124 W/m 11,8 km/h (2 Bft)
07.01.2014 15:00 13,4 C 11,7 C 73 % 1011,2 hPa 0,0 l/m 0,20 h 0,00 h 0,0 UV-I 71 W/m 15,8 km/h (3 Bft)
07.01.2014 16:00 13,3 C 11,4 C 71 % 1011,5 hPa 0,0 l/m 0,23 h 0,00 h 0,0 UV-I 18 W/m 15,1 km/h (3 Bft)
07.01.2014 17:00 12,7 C 10,7 C 74 % 1011,7 hPa 0,0 l/m 0,00 h 0,00 h 0,0 UV-I 0 W/m 10,4 km/h (2 Bft)
07.01.2014 18:00 12,4 C 10,6 C 76 % 1011,8 hPa 0,0 l/m 0,00 h 0,03 h 0,0 UV-I 0 W/m 11,8 km/h (2 Bft)
07.01.2014 19:00 12,4 C 10,4 C 77 % 1012,1 hPa 0,0 l/m 0,00 h 0,00 h 0,0 UV-I 0 W/m 16,6 km/h (3 Bft)
07.01.2014 20:00 11,6 C 9,4 C 82 % 1012,3 hPa 0,0 l/m 0,00 h 0,00 h 0,0 UV-I 0 W/m 11,6 km/h (2 Bft)
07.01.2014 21:00 10,8 C 8,7 C 85 % 1012,6 hPa 0,0 l/m 0,00 h 0,00 h 0,0 UV-I 0 W/m 8,2 km/h (2 Bft)
07.01.2014 22:00 10,0 C 7,7 C 88 % 1012,9 hPa 0,0 l/m 0,00 h 0,00 h 0,0 UV-I 0 W/m 4,7 km/h (1 Bft)
07.01.2014 23:00 9,3 C 7,1 C 91 % 1012,9 hPa 0,0 l/m 0,00 h 0,00 h 0,0 UV-I 0 W/m 2,9 km/h (1 Bft)
08.01.2014 00:00 9,3 C 7,4 C 92 % 1012,9 hPa 0,0 l/m 0,00 h 0,00 h 0,0 UV-I 0 W/m 2,3 km/h (1 Bft)
08.01.2014 01:00 9,6 C 7,9 C 92 % 1012,9 hPa 0,0 l/m 0,00 h 0,00 h 0,0 UV-I 0 W/m 6,7 km/h (2 Bft)
08.01.2014 02:00 9,9 C 8,4 C 91 % 1012,6 hPa 0,0 l/m 0,00 h 0,00 h 0,0 UV-I 0 W/m 7,1 km/h (2 Bft)
08.01.2014 03:00 10,5 C 8,5 C 88 % 1012,2 hPa 0,2 l/m 0,00 h 0,80 h 0,0 UV-I 0 W/m 17,5 km/h (3 Bft)
08.01.2014 04:00 11,2 C 9,0 C 86 % 1011,7 hPa 0,0 l/m 0,00 h 0,37 h 0,0 UV-I 0 W/m 25,0 km/h (4 Bft)
08.01.2014 05:00 11,3 C 8,8 C 86 % 1012,5 hPa 0,8 l/m 0,00 h 0,97 h 0,0 UV-I 0 W/m 25,0 km/h (4 Bft)
08.01.2014 06:00 9,8 C 7,6 C 91 % 1014,4 hPa 0,0 l/m 0,00 h 0,60 h 0,0 UV-I 0 W/m 20,9 km/h (4 Bft)
08.01.2014 07:00 9,0 C 6,7 C 89 % 1015,9 hPa 0,0 l/m 0,00 h 0,00 h 0,0 UV-I 0 W/m 15,2 km/h (3 Bft)
08.01.2014 08:00 8,4 C 6,1 C 89 % 1016,8 hPa 0,0 l/m 0,13 h 0,00 h 0,0 UV-I 10 W/m 11,1 km/h (2 Bft)
08.01.2014 09:00 8,4 C 6,5 C 89 % 1017,5 hPa 0,0 l/m 0,03 h 0,00 h 0,0 UV-I 38 W/m 11,5 km/h (2 Bft)
08.01.2014 10:00 9,2 C 7,0 C 87 % 1018,1 hPa 0,0 l/m 0,63 h 0,00 h 0,0 UV-I 121 W/m 14,7 km/h (3 Bft)
08.01.2014 11:00 10,1 C 8,3 C 83 % 1018,3 hPa 0,0 l/m 1,00 h 0,00 h 0,0 UV-I 209 W/m 12,9 km/h (3 Bft)
08.01.2014 12:00 11,0 C 9,4 C 80 % 1018,4 hPa 0,0 l/m 0,80 h 0,00 h 0,0 UV-I 236 W/m 13,7 km/h (3 Bft)
08.01.2014 13:00 11,5 C 10,1 C 81 % 1018,2 hPa 0,0 l/m 0,90 h 0,00 h 0,0 UV-I 186 W/m 12,3 km/h (3 Bft)
08.01.2014 14:00 11,6 C 10,2 C 80 % 1017,9 hPa 0,0 l/m 0,57 h 0,00 h 0,0 UV-I 148 W/m 11,1 km/h (2 Bft)
08.01.2014 15:00 11,3 C 9,7 C 79 % 1018,0 hPa 0,0 l/m 0,20 h 0,00 h 0,0 UV-I 61 W/m 10,0 km/h (2 Bft)
08.01.2014 16:00 10,6 C 8,7 C 81 % 1017,9 hPa 0,0 l/m 0,00 h 0,00 h 0,0 UV-I 17 W/m 6,3 km/h (2 Bft)
08.01.2014 17:00 9,6 C 7,6 C 83 % 1017,7 hPa 0,0 l/m 0,00 h 0,00 h 0,0 UV-I 0 W/m 3,3 km/h (1 Bft)
08.01.2014 18:00 8,4 C 6,1 C 87 % 1017,6 hPa 0,0 l/m 0,00 h 0,00 h 0,0 UV-I 0 W/m 1,1 km/h (1 Bft)
08.01.2014 19:00 7,5 C 5,1 C 90 % 1017,2 hPa 0,0 l/m 0,00 h 0,00 h 0,0 UV-I 0 W/m 0,7 km/h (0 Bft)
08.01.2014 20:00 7,3 C 5,2 C 92 % 1017,0 hPa 0,0 l/m 0,00 h 0,00 h 0,0 UV-I 0 W/m 3,1 km/h (1 Bft)
08.01.2014 21:00 7,4 C 5,6 C 92 % 1016,3 hPa 0,0 l/m 0,00 h 0,00 h 0,0 UV-I 0 W/m 4,2 km/h (1 Bft)
08.01.2014 22:00 7,3 C 5,7 C 92 % 1015,5 hPa 0,0 l/m 0,00 h 0,00 h 0,0 UV-I 0 W/m 5,4 km/h (1 Bft)
08.01.2014 23:00 7,4 C 6,0 C 93 % 1014,7 hPa 0,0 l/m 0,00 h 0,00 h 0,0 UV-I 0 W/m 4,3 km/h (1 Bft)
09.01.2014 00:00 7,2 C 5,6 C 93 % 1013,8 hPa 0,0 l/m 0,00 h 0,00 h 0,0 UV-I 0 W/m 8,2 km/h (2 Bft)
09.01.2014 01:00 7,2 C 6,0 C 94 % 1012,6 hPa 0,0 l/m 0,00 h 0,00 h 0,0 UV-I 0 W/m 8,3 km/h (2 Bft)
09.01.2014 02:00 7,8 C 6,7 C 95 % 1011,7 hPa 0,0 l/m 0,00 h 0,30 h 0,0 UV-I 0 W/m 10,6 km/h (2 Bft)
09.01.2014 03:00 8,6 C 7,2 C 96 % 1011,0 hPa 1,0 l/m 0,00 h 1,00 h 0,0 UV-I 0 W/m 8,1 km/h (2 Bft)
09.01.2014 04:00 9,3 C 7,8 C 97 % 1009,8 hPa 0,8 l/m 0,00 h 0,67 h 0,0 UV-I 0 W/m 10,6 km/h (2 Bft)
09.01.2014 05:00 9,5 C 7,8 C 97 % 1008,4 hPa 0,0 l/m 0,00 h 0,00 h 0,0 UV-I 0 W/m 14,4 km/h (3 Bft)
09.01.2014 06:00 9,3 C 7,6 C 97 % 1007,4 hPa 0,0 l/m 0,00 h 0,00 h 0,0 UV-I 0 W/m 12,5 km/h (3 Bft)
09.01.2014 07:00 9,1 C 7,2 C 97 % 1006,6 hPa 0,0 l/m 0,00 h 0,00 h 0,0 UV-I 0 W/m 11,6 km/h (2 Bft)
09.01.2014 08:00 9,5 C 7,8 C 96 % 1005,9 hPa 0,0 l/m 0,00 h 0,00 h 0,0 UV-I 7 W/m 12,8 km/h (3 Bft)
09.01.2014 09:00 10,4 C 8,2 C 92 % 1005,8 hPa 0,0 l/m 0,00 h 0,00 h 0,0 UV-I 14 W/m 12,3 km/h (3 Bft)
09.01.2014 10:00 12,1 C 9,6 C 85 % 1005,6 hPa 0,0 l/m 0,00 h 0,00 h 0,0 UV-I 44 W/m 23,5 km/h (4 Bft)
09.01.2014 11:00 12,4 C 9,6 C 85 % 1005,1 hPa 0,0 l/m 0,00 h 0,83 h 0,0 UV-I 49 W/m 28,8 km/h (5 Bft)
09.01.2014 12:00 12,2 C 10,4 C 86 % 1004,3 hPa 0,0 l/m 0,00 h 0,23 h 0,0 UV-I 61 W/m 27,8 km/h (4 Bft)
09.01.2014 13:00 12,2 C 10,6 C 82 % 1003,7 hPa 0,0 l/m 0,00 h 0,13 h 0,0 UV-I 71 W/m 30,2 km/h (5 Bft)
09.01.2014 14:00 12,0 C 10,5 C 81 % 1003,3 hPa 0,0 l/m 0,00 h 0,00 h 0,0 UV-I 63 W/m 26,2 km/h (4 Bft)
09.01.2014 15:00 11,8 C 10,1 C 77 % 1003,4 hPa 0,0 l/m 0,00 h 0,00 h 0,0 UV-I 28 W/m 28,1 km/h (4 Bft)
09.01.2014 16:00 11,1 C 8,8 C 79 % 1003,9 hPa 0,2 l/m 0,00 h 0,83 h 0,0 UV-I 10 W/m 25,5 km/h (4 Bft)
09.01.2014 17:00 9,7 C 7,5 C 86 % 1004,8 hPa 1,4 l/m 0,00 h 0,63 h 0,0 UV-I 0 W/m 23,2 km/h (4 Bft)
09.01.2014 18:00 7,6 C 5,4 C 89 % 1006,3 hPa 0,0 l/m 0,00 h 0,20 h 0,0 UV-I 0 W/m 24,5 km/h (4 Bft)
09.01.2014 19:00 6,9 C 5,0 C 88 % 1007,7 hPa 0,0 l/m 0,00 h 0,00 h 0,0 UV-I 0 W/m 21,2 km/h (4 Bft)
09.01.2014 20:00 6,8 C 4,8 C 88 % 1009,0 hPa 0,2 l/m 0,00 h 0,43 h 0,0 UV-I 0 W/m 15,9 km/h (3 Bft)
09.01.2014 21:00 6,4 C 4,4 C 88 % 1009,8 hPa 0,0 l/m 0,00 h 0,00 h 0,0 UV-I 0 W/m 11,2 km/h (2 Bft)
09.01.2014 22:00 6,2 C 4,5 C 87 % 1010,6 hPa 0,0 l/m 0,00 h 0,23 h 0,0 UV-I 0 W/m 11,3 km/h (2 Bft)
09.01.2014 23:00 6,2 C 4,3 C 88 % 1011,1 hPa 0,0 l/m 0,00 h 0,17 h 0,0 UV-I 0 W/m 11,0 km/h (2 Bft)
10.01.2014 00:00 6,1 C 4,4 C 87 % 1011,5 hPa 0,0 l/m 0,00 h 0,00 h 0,0 UV-I 0 W/m 12,8 km/h (3 Bft)
10.01.2014 01:00 5,7 C 4,1 C 88 % 1012,0 hPa 0,0 l/m 0,00 h 0,00 h 0,0 UV-I 0 W/m 12,3 km/h (3 Bft)
10.01.2014 02:00 5,4 C 3,9 C 89 % 1012,8 hPa 0,0 l/m 0,00 h 0,00 h 0,0 UV-I 0 W/m 14,6 km/h (3 Bft)
10.01.2014 03:00 5,3 C 3,9 C 89 % 1013,4 hPa 0,0 l/m 0,00 h 0,00 h 0,0 UV-I 0 W/m 12,0 km/h (2 Bft)
10.01.2014 04:00 4,9 C 3,3 C 90 % 1013,7 hPa 0,0 l/m 0,00 h 0,00 h 0,0 UV-I 0 W/m 9,0 km/h (2 Bft)
10.01.2014 05:00 4,5 C 3,1 C 90 % 1014,2 hPa 0,0 l/m 0,00 h 0,00 h 0,0 UV-I 0 W/m 6,7 km/h (2 Bft)
10.01.2014 06:00 4,3 C 2,8 C 91 % 1014,5 hPa 0,0 l/m 0,00 h 0,00 h 0,0 UV-I 0 W/m 5,1 km/h (1 Bft)
10.01.2014 07:00 4,2 C 2,8 C 93 % 1014,9 hPa 0,0 l/m 0,00 h 0,00 h 0,0 UV-I 0 W/m 4,6 km/h (1 Bft)
10.01.2014 08:00 4,2 C 2,8 C 94 % 1015,3 hPa 0,0 l/m 0,00 h 0,00 h 0,0 UV-I 8 W/m 5,6 km/h (1 Bft)
10.01.2014 09:00 4,5 C 3,5 C 94 % 1016,0 hPa 0,0 l/m 0,00 h 0,00 h 0,0 UV-I 35 W/m 8,5 km/h (2 Bft)
10.01.2014 10:00 5,5 C 4,5 C 94 % 1016,5 hPa 0,0 l/m 0,73 h 0,00 h 0,0 UV-I 121 W/m 11,9 km/h (2 Bft)
10.01.2014 11:00 6,9 C 5,7 C 89 % 1016,7 hPa 0,2 l/m 0,97 h 0,00 h 0,0 UV-I 219 W/m 13,0 km/h (3 Bft)
10.01.2014 12:00 7,9 C 6,5 C 84 % 1016,5 hPa 0,0 l/m 1,00 h 0,00 h 0,0 UV-I 250 W/m 15,0 km/h (3 Bft)
10.01.2014 13:00 8,6 C 7,1 C 81 % 1016,0 hPa 0,0 l/m 1,00 h 0,00 h 0,0 UV-I 249 W/m 14,9 km/h (3 Bft)
10.01.2014 14:00 8,7 C 7,2 C 78 % 1016,0 hPa 0,0 l/m 1,00 h 0,00 h 0,0 UV-I 192 W/m 13,8 km/h (3 Bft)
10.01.2014 15:00 8,3 C 6,8 C 80 % 1016,2 hPa 0,0 l/m 0,20 h 0,00 h 0,0 UV-I 62 W/m 7,1 km/h (2 Bft)
10.01.2014 16:00 7,4 C 5,4 C 83 % 1016,5 hPa 0,0 l/m 0,00 h 0,00 h 0,0 UV-I 12 W/m 1,8 km/h (1 Bft)
10.01.2014 17:00 6,5 C 4,5 C 87 % 1016,5 hPa 0,0 l/m 0,00 h 0,00 h 0,0 UV-I 0 W/m 1,8 km/h (1 Bft)
10.01.2014 18:00 6,0 C 4,1 C 89 % 1016,7 hPa 0,0 l/m 0,00 h 0,00 h 0,0 UV-I 0 W/m 2,3 km/h (1 Bft)
10.01.2014 19:00 5,6 C 3,9 C 89 % 1016,7 hPa 0,0 l/m 0,00 h 0,00 h 0,0 UV-I 0 W/m 2,9 km/h (1 Bft)
10.01.2014 20:00 5,0 C 3,3 C 91 % 1016,7 hPa 0,0 l/m 0,00 h 0,00 h 0,0 UV-I 0 W/m 3,3 km/h (1 Bft)
10.01.2014 21:00 4,6 C 3,3 C 92 % 1016,8 hPa 0,0 l/m 0,00 h 0,00 h 0,0 UV-I 0 W/m 5,7 km/h (1 Bft)
10.01.2014 22:00 4,3 C 2,9 C 92 % 1016,7 hPa 0,0 l/m 0,00 h 0,00 h 0,0 UV-I 0 W/m 4,0 km/h (1 Bft)
10.01.2014 23:00 3,9 C 2,4 C 92 % 1016,8 hPa 0,0 l/m 0,00 h 0,00 h 0,0 UV-I 0 W/m 1,2 km/h (1 Bft)
11.01.2014 00:00 3,2 C 1,4 C 93 % 1016,7 hPa 0,0 l/m 0,00 h 0,00 h 0,0 UV-I 0 W/m 0,2 km/h (0 Bft)
11.01.2014 01:00 2,4 C 0,4 C 94 % 1016,4 hPa 0,0 l/m 0,00 h 0,00 h 0,0 UV-I 0 W/m 0,1 km/h (0 Bft)
11.01.2014 02:00 1,4 C -0,5 C 95 % 1016,1 hPa 0,0 l/m 0,00 h 0,00 h 0,0 UV-I 0 W/m 0,1 km/h (0 Bft)
11.01.2014 03:00 0,8 C -0,9 C 96 % 1015,8 hPa 0,0 l/m 0,00 h 0,00 h 0,0 UV-I 0 W/m 0,6 km/h (0 Bft)
11.01.2014 04:00 0,5 C -1,1 C 96 % 1015,5 hPa 0,0 l/m 0,00 h 0,00 h 0,0 UV-I 0 W/m 1,5 km/h (1 Bft)
11.01.2014 05:00 0,3 C -1,3 C 97 % 1015,2 hPa 0,0 l/m 0,00 h 0,00 h 0,0 UV-I 0 W/m 2,1 km/h (1 Bft)
11.01.2014 06:00 -0,1 C -1,7 C 96 % 1014,8 hPa 0,0 l/m 0,00 h 0,00 h 0,0 UV-I 0 W/m 2,0 km/h (1 Bft)
11.01.2014 07:00 -0,1 C -1,6 C 97 % 1014,8 hPa 0,0 l/m 0,00 h 0,00 h 0,0 UV-I 0 W/m 0,2 km/h (0 Bft)
11.01.2014 08:00 -0,2 C -1,3 C 97 % 1014,9 hPa 0,0 l/m 0,07 h 0,00 h 0,0 UV-I 11 W/m 0,7 km/h (0 Bft)
11.01.2014 09:00 0,4 C 0,0 C 97 % 1014,9 hPa 0,0 l/m 0,00 h 0,00 h 0,0 UV-I 30 W/m 2,2 km/h (1 Bft)
11.01.2014 10:00 1,5 C 0,8 C 97 % 1015,2 hPa 0,0 l/m 0,40 h 0,00 h 0,0 UV-I 97 W/m 0,9 km/h (0 Bft)
11.01.2014 11:00 5,4 C 3,7 C 95 % 1015,2 hPa 0,0 l/m 1,00 h 0,00 h 0,0 UV-I 208 W/m 5,7 km/h (1 Bft)
11.01.2014 12:00 8,2 C 6,8 C 86 % 1014,6 hPa 0,0 l/m 0,83 h 0,00 h 0,0 UV-I 240 W/m 12,8 km/h (3 Bft)
11.01.2014 13:00 8,0 C 6,6 C 87 % 1014,5 hPa 0,2 l/m 0,00 h 0,40 h 0,0 UV-I 62 W/m 15,1 km/h (3 Bft)
11.01.2014 14:00 6,9 C 5,3 C 93 % 1014,8 hPa 0,4 l/m 0,00 h 0,87 h 0,0 UV-I 31 W/m 15,4 km/h (3 Bft)
11.01.2014 15:00 6,6 C 4,9 C 94 % 1015,7 hPa 0,0 l/m 0,00 h 0,07 h 0,0 UV-I 31 W/m 18,2 km/h (3 Bft)
11.01.2014 16:00 6,3 C 4,0 C 91 % 1017,0 hPa 0,0 l/m 0,17 h 0,00 h 0,0 UV-I 18 W/m 14,0 km/h (3 Bft)
11.01.2014 17:00 4,9 C 2,4 C 90 % 1018,4 hPa 0,0 l/m 0,00 h 0,00 h 0,0 UV-I 0 W/m 0,4 km/h (0 Bft)
11.01.2014 18:00 4,3 C 2,4 C 93 % 1019,5 hPa 0,0 l/m 0,00 h 0,00 h 0,0 UV-I 0 W/m 3,5 km/h (1 Bft)
11.01.2014 19:00 4,2 C 2,1 C 93 % 1020,4 hPa 0,0 l/m 0,00 h 0,00 h 0,0 UV-I 0 W/m 2,3 km/h (1 Bft)
11.01.2014 20:00 3,7 C 1,7 C 93 % 1021,2 hPa 0,0 l/m 0,00 h 0,00 h 0,0 UV-I 0 W/m 3,4 km/h (1 Bft)
11.01.2014 21:00 3,5 C 1,8 C 93 % 1022,2 hPa 0,0 l/m 0,00 h 0,00 h 0,0 UV-I 0 W/m 4,2 km/h (1 Bft)
11.01.2014 22:00 3,2 C 1,2 C 93 % 1022,7 hPa 0,0 l/m 0,00 h 0,00 h 0,0 UV-I 0 W/m 1,5 km/h (1 Bft)
11.01.2014 23:00 2,5 C 0,6 C 93 % 1023,1 hPa 0,0 l/m 0,00 h 0,00 h 0,0 UV-I 0 W/m 0,3 km/h (0 Bft)
12.01.2014 00:00 2,4 C 0,9 C 94 % 1023,8 hPa 0,0 l/m 0,00 h 0,00 h 0,0 UV-I 0 W/m 2,1 km/h (1 Bft)
12.01.2014 01:00 2,3 C 0,8 C 94 % 1024,1 hPa 0,0 l/m 0,00 h 0,00 h 0,0 UV-I 0 W/m 1,7 km/h (1 Bft)
12.01.2014 02:00 1,9 C -0,0 C 94 % 1024,3 hPa 0,0 l/m 0,00 h 0,00 h 0,0 UV-I 0 W/m 0,2 km/h (0 Bft)
12.01.2014 03:00 1,3 C -0,7 C 94 % 1024,8 hPa 0,0 l/m 0,00 h 0,00 h 0,0 UV-I 0 W/m 0,4 km/h (0 Bft)
12.01.2014 04:00 0,9 C -0,8 C 95 % 1025,0 hPa 0,0 l/m 0,00 h 0,00 h 0,0 UV-I 0 W/m 0,3 km/h (0 Bft)
12.01.2014 05:00 0,6 C -1,2 C 95 % 1025,0 hPa 0,0 l/m 0,00 h 0,00 h 0,0 UV-I 0 W/m 0,1 km/h (0 Bft)
12.01.2014 06:00 0,6 C -0,9 C 96 % 1025,0 hPa 0,2 l/m 0,00 h 0,00 h 0,0 UV-I 0 W/m 0,1 km/h (0 Bft)
12.01.2014 07:00 0,3 C -1,9 C 96 % 1024,8 hPa 0,0 l/m 0,00 h 0,00 h 0,0 UV-I 0 W/m 0,0 km/h (0 Bft)
12.01.2014 08:00 -0,1 C -2,2 C 96 % 1024,7 hPa 0,0 l/m 0,00 h 0,00 h 0,0 UV-I 9 W/m 0,0 km/h (0 Bft)
12.01.2014 09:00 -0,7 C -2,1 C 96 % 1024,8 hPa 0,0 l/m 0,03 h 0,00 h 0,0 UV-I 39 W/m 0,0 km/h (0 Bft)
12.01.2014 10:00 1,2 C -0,5 C 97 % 1025,0 hPa 0,0 l/m 0,63 h 0,00 h 0,0 UV-I 122 W/m 1,7 km/h (1 Bft)
12.01.2014 11:00 3,9 C 1,8 C 95 % 1024,4 hPa 0,0 l/m 1,00 h 0,00 h 0,0 UV-I 254 W/m 6,2 km/h (2 Bft)
12.01.2014 12:00 6,2 C 4,0 C 86 % 1023,5 hPa 0,0 l/m 0,97 h 0,03 h 0,0 UV-I 281 W/m 9,7 km/h (2 Bft)
12.01.2014 13:00 6,6 C 4,7 C 83 % 1022,6 hPa 0,0 l/m 1,00 h 0,00 h 0,0 UV-I 246 W/m 10,6 km/h (2 Bft)
12.01.2014 14:00 6,4 C 4,8 C 83 % 1021,8 hPa 0,0 l/m 1,00 h 0,00 h 0,0 UV-I 185 W/m 9,7 km/h (2 Bft)
12.01.2014 15:00 6,0 C 4,1 C 81 % 1020,8 hPa 0,0 l/m 0,30 h 0,00 h 0,0 UV-I 66 W/m 10,3 km/h (2 Bft)
12.01.2014 16:00 5,0 C 2,8 C 82 % 1019,7 hPa 0,0 l/m 0,03 h 0,00 h 0,0 UV-I 17 W/m 7,5 km/h (2 Bft)
12.01.2014 17:00 3,9 C 1,6 C 84 % 1018,9 hPa 0,0 l/m 0,00 h 0,00 h 0,0 UV-I 0 W/m 4,5 km/h (1 Bft)
12.01.2014 18:00 3,3 C 1,3 C 85 % 1017,9 hPa 0,0 l/m 0,00 h 0,00 h 0,0 UV-I 0 W/m 10,8 km/h (2 Bft)
12.01.2014 19:00 3,0 C 1,1 C 86 % 1017,2 hPa 0,0 l/m 0,00 h 0,00 h 0,0 UV-I 0 W/m 12,3 km/h (3 Bft)
12.01.2014 20:00 2,5 C 0,8 C 87 % 1016,6 hPa 0,0 l/m 0,00 h 0,00 h 0,0 UV-I 0 W/m 15,8 km/h (3 Bft)
12.01.2014 21:00 2,3 C 0,7 C 87 % 1015,4 hPa 0,0 l/m 0,00 h 0,00 h 0,0 UV-I 0 W/m 17,2 km/h (3 Bft)
12.01.2014 22:00 2,0 C 0,6 C 86 % 1014,6 hPa 0,0 l/m 0,00 h 0,00 h 0,0 UV-I 0 W/m 16,4 km/h (3 Bft)
12.01.2014 23:00 2,0 C 0,6 C 86 % 1013,7 hPa 0,0 l/m 0,00 h 0,00 h 0,0 UV-I 0 W/m 17,2 km/h (3 Bft)
Min-Datum _ 12.01.14 12.01.14 07.01.14 09.01.14 - - - - - 06.01.14
_ Min-Zeit 09:28 08:48 16:06 14:42 - - - - - 06:44
Minimum _ -0,8 C -2,8 C 70 % 1003,0 hPa - - - - - 0,0 km/h (0 Bft)
Max-Datum _ 06.01.14 06.01.14 12.01.14 12.01.14 06.01.14 06.01.14 06.01.14 06.01.14 11.01.14 09.01.14
_ Max-Zeit 13:34 14:36 07:42 04:14 23:04 13:16 07:26 00:00 12:42 10:52
Maximum _ 14,2 C 12,8 C 100 % 1025,1 hPa 5,8 l/m 0,03 h 0,03 h 0,0 UV-I 413 W/m 51,5 km/h
S (7 Bft)
Durchschnitt _ 7,5 C 5,7 C 88 % 1013,3 hPa #12,0 l/m #20:40 h #12:48 h 0,0 UV-I 92 W/m 11,0 km/h (2 Bft)
© 2014 W. Hausmann